TimeEDT,TemperatureF,Dew PointF,Humidity,Sea Level PressureIn,VisibilityMPH,Wind Direction,Wind SpeedMPH,Gust SpeedMPH,PrecipitationIn,Events,Conditions,WindDirDegrees,DateUTC
12:53 AM,46.9,44.1,90,30.01,10.0,Calm,Calm,-,N/A,,Clear,0,2012-10-21 04:53:00
1:53 AM,45.0,43.0,93,30.03,9.0,Calm,Calm,-,N/A,,Clear,0,2012-10-21 05:53:00
2:53 AM,45.0,43.0,93,30.04,9.0,Calm,Calm,-,N/A,,Clear,0,2012-10-21 06:53:00
3:53 AM,44.1,43.0,96,30.05,8.0,Calm,Calm,-,N/A,,Clear,0,2012-10-21 07:53:00
4:53 AM,42.1,41.0,96,30.07,6.0,Calm,Calm,-,N/A,,Clear,0,2012-10-21 08:53:00
5:53 AM,42.1,39.9,92,30.09,8.0,Calm,Calm,-,N/A,,Clear,0,2012-10-21 09:53:00
6:53 AM,42.1,39.9,92,30.10,7.0,Calm,Calm,-,N/A,,Clear,0,2012-10-21 10:53:00
7:53 AM,42.1,39.9,92,30.10,10.0,Calm,Calm,-,N/A,,Clear,0,2012-10-21 11:53:00
8:53 AM,45.0,43.0,93,30.11,10.0,Calm,Calm,-,N/A,,Clear,0,2012-10-21 12:53:00
9:53 AM,51.1,46.0,83,30.12,10.0,South,4.6,-,N/A,,Clear,170,2012-10-21 13:53:00
10:53 AM,55.9,46.9,72,30.13,10.0,South,6.9,-,N/A,,Clear,180,2012-10-21 14:53:00
11:53 AM,62.1,48.0,60,30.13,10.0,Variable,5.8,-,N/A,,Clear,0,2012-10-21 15:53:00
12:53 PM,64.9,48.0,54,30.12,10.0,SSE,6.9,-,N/A,,Clear,150,2012-10-21 16:53:00
1:53 PM,68.0,48.0,49,30.09,10.0,ESE,6.9,-,N/A,,Clear,120,2012-10-21 17:53:00
2:53 PM,69.1,46.9,45,30.07,10.0,Variable,4.6,-,N/A,,Clear,0,2012-10-21 18:53:00
3:53 PM,71.1,46.9,42,30.06,10.0,Variable,4.6,-,N/A,,Clear,0,2012-10-21 19:53:00
4:53 PM,72.0,46.9,41,30.05,10.0,SE,5.8,-,N/A,,Clear,140,2012-10-21 20:53:00
5:53 PM,71.1,46.9,42,30.04,10.0,SE,8.1,-,N/A,,Clear,140,2012-10-21 21:53:00
6:53 PM,69.1,48.0,47,30.06,10.0,ESE,4.6,-,N/A,,Clear,120,2012-10-21 22:53:00
7:53 PM,64.9,48.0,54,30.06,10.0,Calm,Calm,-,N/A,,Clear,0,2012-10-21 23:53:00
8:53 PM,62.1,48.0,60,30.07,10.0,Calm,Calm,-,N/A,,Clear,0,2012-10-22 00:53:00
9:53 PM,62.1,48.0,60,30.07,10.0,Calm,Calm,-,N/A,,Partly Cloudy,0,2012-10-22 01:53:00
10:53 PM,60.1,48.0,64,30.07,10.0,Calm,Calm,-,N/A,,Clear,0,2012-10-22 02:53:00
11:53 PM,57.9,48.0,70,30.08,10.0,Calm,Calm,-,N/A,,Clear,0,2012-10-22 03:53:00